QPF
0.02 0.05 0.07 0.09 0.12 0.12 0.10 0.08 0.08 0.06 0.05 0.04 0.04 0.03 0.02 0.02 0.03 0.04 0.07 0.08 0.05 0.04 0.06 0.06 0.07 0.06 0.04 0.06 0.07 0.08 0.08 0.04 0.02 0.01 0.01 0.01 0.01 0.00 0.01 0.01 0.02 0.02 0.03 0.04 0.04 0.04 0.04 0.04 0.04
0.04 0.08 0.07 0.10 0.13 0.11 0.09 0.07 0.05 0.03 0.03 0.02 0.02 0.01 0.01 0.01 0.04 0.06 0.10 0.11 0.06 0.04 0.05 0.04 0.05 0.05 0.05 0.07 0.09 0.09 0.08 0.07 0.04 0.02 0.01 0.00 0.00 0.01 0.01 0.01 0.02 0.03 0.02 0.03 0.05 0.05 0.04 0.04 0.04
0.08 0.10 0.10 0.13 0.17 0.11 0.10 0.07 0.04 0.02 0.02 0.01 0.01 0.00 0.01 0.03 0.07 0.10 0.13 0.10 0.06 0.05 0.03 0.02 0.03 0.04 0.06 0.09 0.10 0.12 0.09 0.07 0.05 0.02 0.01 0.01 0.01 0.01 0.01 0.02 0.02 0.03 0.03 0.03 0.05 0.05 0.06 0.05 0.04
0.09 0.12 0.16 0.15 0.12 0.06 0.04 0.03 0.03 0.02 0.02 0.01 0.00 0.01 0.02 0.04 0.06 0.10 0.12 0.10 0.08 0.05 0.02 0.01 0.02 0.03 0.08 0.09 0.10 0.07 0.05 0.05 0.05 0.02 0.02 0.01 0.01 0.02 0.02 0.02 0.02 0.03 0.03 0.04 0.04 0.04 0.05 0.07 0.07
0.09 0.15 0.23 0.14 0.11 0.04 0.01 0.03 0.04 0.03 0.03 0.02 0.01 0.01 0.03 0.05 0.06 0.08 0.08 0.09 0.07 0.03 0.01 0.02 0.02 0.04 0.08 0.09 0.09 0.09 0.09 0.06 0.04 0.02 0.02 0.01 0.02 0.02 0.02 0.02 0.02 0.03 0.03 0.03 0.03 0.03 0.04 0.05 0.06
0.12 0.17 0.16 0.11 0.07 0.03 0.01 0.01 0.01 0.03 0.02 0.01 0.01 0.02 0.05 0.07 0.05 0.06 0.07 0.06 0.04 0.01 0.01 0.01 0.02 0.03 0.05 0.06 0.07 0.08 0.07 0.04 0.02 0.02 0.01 0.01 0.02 0.02 0.02 0.03 0.02 0.03 0.02 0.02 0.02 0.02 0.03 0.05 0.06
0.18 0.19 0.18 0.11 0.06 0.04 0.01 0.01 0.01 0.02 0.01 0.01 0.01 0.03 0.06 0.07 0.05 0.05 0.07 0.07 0.04 0.01 0.00 0.01 0.01 0.02 0.03 0.05 0.05 0.05 0.04 0.03 0.02 0.02 0.01 0.02 0.02 0.02 0.02 0.03 0.03 0.03 0.03 0.03 0.03 0.03 0.04 0.05 0.05
0.19 0.14 0.13 0.11 0.06 0.03 0.02 0.02 0.01 0.01 0.01 0.02 0.02 0.05 0.09 0.07 0.06 0.04 0.05 0.07 0.05 0.03 0.01 0.01 0.01 0.01 0.02 0.03 0.04 0.04 0.04 0.03 0.03 0.02 0.03 0.03 0.02 0.01 0.02 0.03 0.04 0.04 0.04 0.03 0.03 0.04 0.05 0.06 0.06
0.11 0.10 0.06 0.06 0.04 0.02 0.01 0.01 0.01 0.00 0.01 0.02 0.02 0.04 0.06 0.05 0.04 0.03 0.03 0.05 0.05 0.04 0.03 0.03 0.01 0.02 0.01 0.02 0.03 0.04 0.03 0.03 0.03 0.03 0.03 0.03 0.02 0.02 0.03 0.05 0.10 0.12 0.10 0.07 0.05 0.04 0.05 0.07 0.06
0.08 0.09 0.03 0.02 0.02 0.02 0.01 0.00 0.00 0.00 0.01 0.02 0.03 0.04 0.04 0.04 0.03 0.03 0.03 0.03 0.03 0.03 0.04 0.03 0.02 0.01 0.02 0.02 0.02 0.03 0.03 0.03 0.04 0.05 0.05 0.06 0.05 0.04 0.05 0.10 0.14 0.14 0.13 0.11 0.10 0.08 0.07 0.06 0.03
0.05 0.06 0.03 0.02 0.02 0.01 0.01 0.01 0.00 0.01 0.03 0.03 0.03 0.03 0.03 0.03 0.02 0.02 0.02 0.03 0.03 0.02 0.03 0.04 0.03 0.02 0.02 0.01 0.01 0.02 0.02 0.03 0.05 0.06 0.07 0.11 0.09 0.06 0.05 0.06 0.07 0.07 0.07 0.07 0.06 0.05 0.03 0.02 0.02
0.04 0.02 0.02 0.02 0.01 0.01 0.01 0.01 0.01 0.02 0.04 0.03 0.03 0.03 0.04 0.06 0.05 0.04 0.02 0.02 0.04 0.05 0.04 0.04 0.04 0.01 0.01 0.01 0.02 0.04 0.03 0.04 0.05 0.06 0.05 0.08 0.08 0.05 0.05 0.03 0.03 0.03 0.02 0.03 0.02 0.02 0.02 0.02 0.02
0.03 0.02 0.01 0.02 0.01 0.01 0.01 0.00 0.01 0.04 0.03 0.04 0.04 0.04 0.08 0.11 0.06 0.04 0.03 0.02 0.03 0.05 0.05 0.05 0.05 0.03 0.02 0.03 0.03 0.03 0.02 0.03 0.05 0.05 0.06 0.07 0.08 0.05 0.05 0.03 0.02 0.01 0.01 0.02 0.02 0.02 0.02 0.02 0.02
0.02 0.02 0.01 0.01 0.01 0.01 0.01 0.00 0.01 0.04 0.04 0.03 0.03 0.03 0.04 0.05 0.04 0.04 0.03 0.02 0.02 0.04 0.07 0.07 0.06 0.04 0.03 0.02 0.02 0.01 0.01 0.02 0.03 0.04 0.06 0.07 0.07 0.06 0.03 0.03 0.03 0.02 0.02 0.02 0.01 0.02 0.03 0.03 0.03
0.03 0.01 0.02 0.02 0.01 0.01 0.02 0.04 0.03 0.03 0.04 0.04 0.03 0.03 0.05 0.07 0.04 0.03 0.03 0.03 0.02 0.03 0.05 0.06 0.06 0.05 0.06 0.04 0.03 0.02 0.02 0.02 0.03 0.03 0.04 0.05 0.04 0.05 0.04 0.03 0.05 0.03 0.02 0.02 0.02 0.03 0.04 0.04 0.05
0.03 0.02 0.02 0.01 0.02 0.02 0.02 0.04 0.03 0.01 0.02 0.03 0.03 0.04 0.06 0.07 0.04 0.03 0.03 0.03 0.02 0.02 0.03 0.04 0.05 0.07 0.07 0.07 0.03 0.02 0.02 0.01 0.02 0.02 0.03 0.06 0.04 0.03 0.03 0.04 0.05 0.03 0.02 0.03 0.03 0.03 0.03 0.03 0.04
0.04 0.04 0.03 0.01 0.01 0.02 0.01 0.02 0.01 0.01 0.01 0.02 0.03 0.03 0.03 0.04 0.04 0.04 0.04 0.03 0.02 0.02 0.02 0.02 0.04 0.07 0.07 0.07 0.04 0.02 0.02 0.02 0.03 0.03 0.02 0.03 0.03 0.02 0.03 0.03 0.02 0.02 0.02 0.03 0.03 0.03 0.02 0.04 0.07
0.03 0.04 0.04 0.03 0.01 0.02 0.02 0.03 0.01 0.01 0.00 0.01 0.02 0.02 0.02 0.02 0.03 0.03 0.04 0.03 0.03 0.02 0.01 0.01 0.02 0.04 0.06 0.04 0.03 0.02 0.02 0.02 0.03 0.03 0.02 0.02 0.01 0.01 0.02 0.03 0.03 0.02 0.02 0.02 0.02 0.03 0.03 0.03 0.07
0.04 0.03 0.04 0.04 0.02 0.04 0.04 0.03 0.01 0.00 0.00 0.00 0.00 0.01 0.00 0.01 0.01 0.02 0.03 0.02 0.02 0.01 0.01 0.01 0.01 0.01 0.01 0.01 0.01 0.02 0.02 0.01 0.02 0.02 0.01 0.01 0.01 0.01 0.03 0.03 0.03 0.02 0.02 0.02 0.02 0.02 0.02 0.03 0.05
0.04 0.03 0.05 0.04 0.03 0.03 0.04 0.04 0.01 0.01 0.00 0.00 0.00 0.00 0.00 0.00 0.01 0.02 0.02 0.01 0.01 0.00 0.01 0.01 0.01 0.00 0.01 0.01 0.02 0.03 0.02 0.02 0.02 0.02 0.01 0.01 0.01 0.02 0.02 0.01 0.02 0.02 0.02 0.03 0.03 0.03 0.03 0.04 0.05
0.02 0.02 0.03 0.05 0.02 0.02 0.03 0.06 0.05 0.02 0.01 0.00 0.00 0.00 0.01 0.02 0.01 0.02 0.02 0.01 0.01 0.00 0.01 0.01 0.01 0.00 0.01 0.02 0.03 0.04 0.04 0.03 0.03 0.03 0.03 0.02 0.01 0.01 0.01 0.01 0.02 0.03 0.03 0.04 0.04 0.03 0.03 0.03 0.06
0.02 0.01 0.01 0.01 0.02 0.03 0.02 0.05 0.05 0.05 0.02 0.01 0.01 0.01 0.01 0.03 0.03 0.03 0.03 0.02 0.01 0.01 0.01 0.02 0.02 0.01 0.01 0.02 0.03 0.03 0.02 0.02 0.02 0.03 0.04 0.03 0.02 0.02 0.01 0.02 0.03 0.04 0.04 0.03 0.02 0.03 0.04 0.03 0.04
0.02 0.01 0.01 0.01 0.03 0.03 0.02 0.03 0.05 0.06 0.04 0.02 0.01 0.01 0.01 0.02 0.04 0.05 0.06 0.03 0.03 0.01 0.01 0.02 0.03 0.02 0.01 0.02 0.04 0.04 0.02 0.02 0.03 0.04 0.04 0.04 0.04 0.04 0.03 0.03 0.05 0.05 0.04 0.02 0.01 0.02 0.03 0.03 0.02
0.01 0.01 0.01 0.02 0.03 0.03 0.02 0.02 0.05 0.05 0.03 0.03 0.04 0.03 0.03 0.05 0.06 0.05 0.04 0.04 0.05 0.04 0.04 0.03 0.03 0.02 0.01 0.02 0.03 0.03 0.03 0.02 0.02 0.03 0.05 0.05 0.05 0.05 0.04 0.04 0.05 0.05 0.03 0.02 0.01 0.02 0.02 0.02 0.02
0.01 0.01 0.01 0.02 0.03 0.03 0.03 0.05 0.06 0.05 0.04 0.04 0.07 0.09 0.10 0.08 0.06 0.04 0.04 0.04 0.05 0.08 0.06 0.05 0.04 0.03 0.02 0.03 0.04 0.03 0.03 0.03 0.03 0.04 0.05 0.05 0.04 0.04 0.03 0.03 0.05 0.04 0.03 0.02 0.01 0.02 0.02 0.02 0.02
0.01 0.01 0.02 0.03 0.02 0.04 0.07 0.09 0.07 0.06 0.05 0.05 0.06 0.09 0.10 0.06 0.06 0.07 0.07 0.06 0.05 0.08 0.07 0.05 0.05 0.05 0.04 0.03 0.03 0.03 0.03 0.03 0.03 0.03 0.03 0.03 0.04 0.03 0.02 0.02 0.04 0.03 0.03 0.03 0.03 0.02 0.02 0.02 0.03
0.02 0.02 0.02 0.04 0.03 0.04 0.05 0.08 0.09 0.07 0.05 0.06 0.08 0.08 0.06 0.08 0.11 0.12 0.11 0.08 0.07 0.05 0.04 0.04 0.03 0.03 0.03 0.03 0.02 0.02 0.02 0.04 0.04 0.03 0.03 0.03 0.03 0.03 0.02 0.01 0.01 0.01 0.02 0.02 0.03 0.02 0.02 0.02 0.02
0.02 0.03 0.02 0.03 0.03 0.03 0.05 0.07 0.10 0.09 0.13 0.11 0.09 0.08 0.07 0.10 0.17 0.21 0.23 0.22 0.12 0.05 0.04 0.04 0.03 0.03 0.03 0.03 0.03 0.03 0.03 0.03 0.03 0.02 0.02 0.03 0.02 0.02 0.02 0.01 0.01 0.01 0.01 0.02 0.02 0.01 0.02 0.03 0.03
0.02 0.03 0.02 0.02 0.03 0.03 0.06 0.06 0.08 0.10 0.07 0.08 0.08 0.08 0.07 0.13 0.21 0.26 0.23 0.19 0.09 0.05 0.04 0.03 0.02 0.03 0.04 0.05 0.06 0.05 0.03 0.02 0.02 0.03 0.03 0.02 0.02 0.02 0.01 0.01 0.01 0.01 0.01 0.02 0.02 0.01 0.03 0.04 0.04
0.01 0.01 0.01 0.02 0.02 0.04 0.05 0.05 0.09 0.11 0.06 0.05 0.06 0.09 0.11 0.10 0.12 0.13 0.08 0.09 0.07 0.05 0.04 0.03 0.03 0.02 0.03 0.03 0.03 0.03 0.03 0.02 0.02 0.02 0.03 0.02 0.02 0.02 0.01 0.01 0.01 0.01 0.01 0.02 0.02 0.02 0.04 0.04 0.03
MSLP
1010.02 1010.66 1011.28 1011.77 1012.02 1011.98 1011.65 1011.10 1010.43 1009.78 1009.27 1008.98 1008.95 1009.14 1009.47 1009.86 1010.19 1010.38 1010.41 1010.28 1010.05 1009.80 1009.61 1009.54 1009.63 1009.86 1010.18 1010.54 1010.87 1011.15 1011.36 1011.52 1011.67 1011.86 1012.11 1012.44 1012.84 1013.27 1013.68 1014.03 1014.28 1014.43 1014.50 1014.54 1014.57 1014.64 1014.77 1014.95 1015.17
1010.32 1011.02 1011.63 1012.02 1012.10 1011.86 1011.34 1010.62 1009.86 1009.18 1008.72 1008.54 1008.65 1009.00 1009.49 1010.00 1010.42 1010.66 1010.71 1010.60 1010.37 1010.13 1009.95 1009.91 1010.03 1010.28 1010.64 1011.03 1011.39 1011.68 1011.91 1012.07 1012.21 1012.37 1012.58 1012.87 1013.20 1013.56 1013.91 1014.19 1014.39 1014.51 1014.56 1014.58 1014.60 1014.66 1014.78 1014.94 1015.15
1010.74 1011.46 1012.01 1012.27 1012.19 1011.78 1011.10 1010.29 1009.48 1008.83 1008.45 1008.38 1008.62 1009.09 1009.68 1010.27 1010.73 1011.01 1011.08 1010.98 1010.77 1010.55 1010.40 1010.39 1010.53 1010.81 1011.18 1011.57 1011.94 1012.24 1012.46 1012.62 1012.74 1012.87 1013.04 1013.26 1013.52 1013.81 1014.07 1014.30 1014.46 1014.55 1014.59 1014.61 1014.64 1014.70 1014.80 1014.94 1015.12
1011.21 1011.90 1012.34 1012.47 1012.25 1011.71 1010.96 1010.12 1009.35 1008.78 1008.51 1008.56 1008.90 1009.44 1010.08 1010.69 1011.17 1011.45 1011.52 1011.44 1011.26 1011.08 1010.97 1010.99 1011.15 1011.43 1011.79 1012.16 1012.50 1012.78 1012.98 1013.12 1013.22 1013.32 1013.44 1013.60 1013.79 1014.00 1014.20 1014.37 1014.50 1014.58 1014.63 1014.67 1014.71 1014.77 1014.86 1014.98 1015.11
1011.64 1012.22 1012.53 1012.52 1012.18 1011.59 1010.85 1010.09 1009.44 1009.02 1008.89 1009.06 1009.48 1010.06 1010.69 1011.27 1011.71 1011.97 1012.04 1011.98 1011.85 1011.72 1011.66 1011.71 1011.87 1012.12 1012.43 1012.75 1013.03 1013.26 1013.42 1013.53 1013.60 1013.67 1013.76 1013.86 1014.00 1014.15 1014.29 1014.42 1014.53 1014.61 1014.68 1014.74 1014.80 1014.88 1014.96 1015.05 1015.14
1011.90 1012.31 1012.46 1012.32 1011.92 1011.35 1010.71 1010.11 1009.67 1009.47 1009.52 1009.81 1010.29 1010.86 1011.45 1011.96 1012.33 1012.54 1012.61 1012.58 1012.51 1012.44 1012.43 1012.49 1012.64 1012.85 1013.08 1013.30 1013.50 1013.65 1013.76 1013.83 1013.88 1013.93 1014.00 1014.07 1014.17 1014.26 1014.36 1014.46 1014.55 1014.64 1014.74 1014.83 1014.92 1015.01 1015.09 1015.15 1015.20
1011.88 1012.10 1012.07 1011.82 1011.41 1010.92 1010.46 1010.12 1009.96 1010.01 1010.27 1010.69 1011.22 1011.77 1012.27 1012.68 1012.96 1013.12 1013.18 1013.19 1013.17 1013.17 1013.21 1013.30 1013.42 1013.55 1013.69 1013.80 1013.89 1013.95 1014.00 1014.04 1014.08 1014.13 1014.19 1014.25 1014.32 1014.38 1014.44 1014.51 1014.59 1014.68 1014.79 1014.91 1015.03 1015.14 1015.23 1015.28 1015.30
1011.58 1011.58 1011.37 1011.04 1010.66 1010.32 1010.09 1010.05 1010.20 1010.54 1011.02 1011.58 1012.14 1012.65 1013.06 1013.36 1013.55 1013.66 1013.71 1013.75 1013.80 1013.88 1013.97 1014.06 1014.15 1014.21 1014.24 1014.24 1014.22 1014.19 1014.18 1014.19 1014.24 1014.30 1014.37 1014.44 1014.49 1014.53 1014.55 1014.59 1014.64 1014.72 1014.84 1014.98 1015.14 1015.27 1015.37 1015.42 1015.43
1011.03 1010.82 1010.48 1010.09 1009.77 1009.59 1009.63 1009.89 1010.36 1010.98 1011.67 1012.34 1012.94 1013.41 1013.73 1013.93 1014.04 1014.10 1014.16 1014.24 1014.36 1014.50 1014.64 1014.75 1014.80 1014.80 1014.73 1014.62 1014.50 1014.40 1014.35 1014.35 1014.40 1014.49 1014.58 1014.65 1014.70 1014.72 1014.71 1014.71 1014.73 1014.79 1014.91 1015.06 1015.23 1015.39 1015.52 1015.58 1015.59
1010.36 1010.00 1009.55 1009.14 1008.89 1008.88 1009.16 1009.69 1010.44 1011.30 1012.16 1012.94 1013.55 1013.98 1014.23 1014.35 1014.40 1014.43 1014.50 1014.62 1014.80 1015.00 1015.19 1015.32 1015.35 1015.29 1015.16 1014.97 1014.78 1014.63 1014.54 1014.54 1014.61 1014.72 1014.83 1014.92 1014.96 1014.96 1014.92 1014.88 1014.87 1014.90 1015.00 1015.15 1015.34 1015.52 1015.68 1015.77 1015.80
1009.74 1009.28 1008.78 1008.38 1008.21 1008.34 1008.80 1009.54 1010.49 1011.52 1012.50 1013.33 1013.95 1014.35 1014.55 1014.62 1014.62 1014.65 1014.73 1014.90 1015.13 1015.38 1015.61 1015.75 1015.79 1015.70 1015.52 1015.29 1015.06 1014.88 1014.78 1014.78 1014.86 1014.99 1015.12 1015.22 1015.26 1015.25 1015.18 1015.11 1015.06 1015.07 1015.14 1015.29 1015.48 1015.69 1015.87 1016.00 1016.06
1009.35 1008.86 1008.36 1007.98 1007.87 1008.10 1008.66 1009.52 1010.57 1011.67 1012.69 1013.54 1014.15 1014.52 1014.69 1014.73 1014.73 1014.76 1014.87 1015.07 1015.34 1015.63 1015.88 1016.05 1016.09 1016.01 1015.82 1015.58 1015.34 1015.15 1015.05 1015.05 1015.14 1015.27 1015.41 1015.51 1015.55 1015.53 1015.46 1015.37 1015.30 1015.29 1015.35 1015.49 1015.68 1015.90 1016.11 1016.28 1016.37
1009.29 1008.85 1008.38 1008.05 1007.98 1008.24 1008.83 1009.70 1010.74 1011.81 1012.80 1013.61 1014.19 1014.53 1014.69 1014.73 1014.74 1014.79 1014.92 1015.15 1015.44 1015.75 1016.02 1016.21 1016.27 1016.21 1016.05 1015.83 1015.61 1015.43 1015.33 1015.33 1015.40 1015.52 1015.64 1015.74 1015.79 1015.77 1015.71 1015.62 1015.56 1015.55 1015.61 1015.74 1015.94 1016.16 1016.39 1016.58 1016.71
1009.61 1009.25 1008.85 1008.57 1008.52 1008.76 1009.30 1010.07 1011.00 1011.96 1012.85 1013.57 1014.10 1014.42 1014.59 1014.66 1014.70 1014.78 1014.93 1015.16 1015.44 1015.75 1016.02 1016.22 1016.31 1016.30 1016.19 1016.02 1015.84 1015.69 1015.59 1015.57 1015.60 1015.69 1015.78 1015.86 1015.90 1015.90 1015.87 1015.83 1015.80 1015.82 1015.89 1016.03 1016.23 1016.45 1016.68 1016.89 1017.05
1010.21 1009.95 1009.65 1009.42 1009.36 1009.55 1009.97 1010.59 1011.33 1012.12 1012.84 1013.45 1013.92 1014.23 1014.42 1014.53 1014.62 1014.73 1014.89 1015.11 1015.37 1015.65 1015.91 1016.11 1016.23 1016.27 1016.24 1016.14 1016.02 1015.90 1015.80 1015.75 1015.73 1015.75 1015.79 1015.84 1015.88 1015.90 1015.92 1015.95 1015.98 1016.06 1016.17 1016.33 1016.52 1016.74 1016.96 1017.17 1017.33
1010.90 1010.76 1010.56 1010.38 1010.32 1010.43 1010.71 1011.13 1011.66 1012.22 1012.77 1013.25 1013.65 1013.95 1014.18 1014.36 1014.50 1014.66 1014.83 1015.02 1015.24 1015.47 1015.70 1015.90 1016.05 1016.15 1016.20 1016.19 1016.14 1016.06 1015.96 1015.86 1015.78 1015.72 1015.69 1015.69 1015.72 1015.78 1015.86 1015.97 1016.09 1016.24 1016.40 1016.59 1016.79 1017.00 1017.20 1017.39 1017.55
1011.49 1011.46 1011.35 1011.24 1011.19 1011.23 1011.37 1011.59 1011.89 1012.24 1012.59 1012.95 1013.28 1013.59 1013.87 1014.12 1014.34 1014.54 1014.73 1014.90 1015.07 1015.24 1015.42 1015.60 1015.79 1015.95 1016.09 1016.18 1016.21 1016.17 1016.08 1015.95 1015.79 1015.64 1015.53 1015.47 1015.48 1015.56 1015.70 1015.89 1016.11 1016.34 1016.57 1016.79 1017.00 1017.19 1017.36 1017.52 1017.67
1011.79 1011.85 1011.85 1011.83 1011.81 1011.81 1011.83 1011.89 1011.98 1012.11 1012.29 1012.52 1012.80 1013.12 1013.46 1013.80 1014.11 1014.37 1014.57 1014.72 1014.85 1014.96 1015.09 1015.26 1015.47 1015.70 1015.92 1016.11 1016.23 1016.26 1016.18 1016.02 1015.80 1015.56 1015.36 1015.24 1015.22 1015.31 1015.50 1015.76 1016.07 1016.38 1016.67 1016.92 1017.13 1017.30 1017.44 1017.57 1017.69
1011.68 1011.84 1011.97 1012.06 1012.12 1012.12 1012.07 1011.99 1011.89 1011.84 1011.85 1011.96 1012.19 1012.52 1012.92 1013.35 1013.75 1014.08 1014.33 1014.48 1014.57 1014.65 1014.74 1014.89 1015.12 1015.41 1015.72 1016.01 1016.23 1016.32 1016.28 1016.10 1015.83 1015.53 1015.25 1015.05 1014.99 1015.07 1015.28 1015.60 1015.97 1016.34 1016.68 1016.96 1017.17 1017.32 1017.43 1017.53 1017.63
1011.17 1011.45 1011.74 1011.98 1012.14 1012.19 1012.12 1011.93 1011.68 1011.45 1011.29 1011.28 1011.44 1011.76 1012.21 1012.73 1013.23 1013.66 1013.96 1014.14 1014.24 1014.29 1014.36 1014.50 1014.74 1015.08 1015.47 1015.86 1016.17 1016.35 1016.36 1016.20 1015.91 1015.55 1015.21 1014.95 1014.84 1014.89 1015.10 1015.44 1015.84 1016.25 1016.62 1016.91 1017.11 1017.25 1017.33 1017.40 1017.49
1010.38 1010.81 1011.28 1011.71 1012.03 1012.16 1012.09 1011.82 1011.43 1011.01 1010.67 1010.51 1010.56 1010.85 1011.33 1011.92 1012.52 1013.05 1013.44 1013.69 1013.81 1013.87 1013.93 1014.07 1014.33 1014.71 1015.17 1015.64 1016.04 1016.31 1016.39 1016.28 1016.00 1015.62 1015.24 1014.94 1014.77 1014.78 1014.96 1015.28 1015.68 1016.10 1016.47 1016.76 1016.95 1017.07 1017.14 1017.20 1017.26
1009.50 1010.11 1010.80 1011.46 1011.95 1012.19 1012.13 1011.79 1011.24 1010.62 1010.07 1009.71 1009.62 1009.82 1010.28 1010.91 1011.61 1012.24 1012.75 1013.09 1013.27 1013.37 1013.45 1013.60 1013.87 1014.27 1014.77 1015.31 1015.79 1016.15 1016.31 1016.27 1016.04 1015.68 1015.30 1014.96 1014.75 1014.71 1014.84 1015.12 1015.48 1015.87 1016.22 1016.50 1016.68 1016.79 1016.85 1016.89 1016.96
1008.73 1009.56 1010.49 1011.38 1012.06 1012.40 1012.35 1011.92 1011.20 1010.35 1009.55 1008.94 1008.66 1008.72 1009.12 1009.76 1010.52 1011.26 1011.89 1012.34 1012.62 1012.79 1012.91 1013.07 1013.34 1013.75 1014.27 1014.84 1015.39 1015.82 1016.08 1016.12 1015.96 1015.66 1015.30 1014.96 1014.72 1014.63 1014.70 1014.91 1015.22 1015.56 1015.87 1016.12 1016.29 1016.39 1016.45 1016.49 1016.56
1008.20 1009.26 1010.45 1011.56 1012.41 1012.84 1012.78 1012.24 1011.34 1010.24 1009.15 1008.27 1007.74 1007.63 1007.92 1008.53 1009.32 1010.15 1010.90 1011.48 1011.87 1012.12 1012.29 1012.47 1012.74 1013.14 1013.65 1014.24 1014.82 1015.31 1015.65 1015.78 1015.72 1015.49 1015.18 1014.87 1014.62 1014.49 1014.50 1014.64 1014.88 1015.16 1015.42 1015.64 1015.80 1015.89 1015.94 1015.99 1016.06
1007.95 1009.25 1010.66 1011.97 1012.95 1013.45 1013.36 1012.71 1011.61 1010.26 1008.89 1007.72 1006.93 1006.61 1006.75 1007.29 1008.09 1008.99 1009.84 1010.54 1011.05 1011.39 1011.62 1011.83 1012.09 1012.46 1012.94 1013.51 1014.10 1014.63 1015.03 1015.25 1015.28 1015.15 1014.92 1014.64 1014.41 1014.26 1014.22 1014.30 1014.46 1014.67 1014.89 1015.07 1015.21 1015.29 1015.35 1015.40 1015.48
1007.92 1009.41 1011.00 1012.45 1013.53 1014.05 1013.93 1013.18 1011.91 1010.34 1008.72 1007.29 1006.26 1005.72 1005.71 1006.16 1006.93 1007.86 1008.78 1009.58 1010.20 1010.63 1010.93 1011.16 1011.41 1011.74 1012.18 1012.70 1013.27 1013.81 1014.26 1014.55 1014.68 1014.65 1014.50 1014.29 1014.08 1013.93 1013.86 1013.88 1013.98 1014.13 1014.30 1014.44 1014.56 1014.64 1014.70 1014.76 1014.83
1007.96 1009.57 1011.27 1012.79 1013.91 1014.44 1014.29 1013.46 1012.08 1010.36 1008.57 1006.95 1005.72 1005.01 1004.85 1005.19 1005.90 1006.83 1007.79 1008.66 1009.37 1009.88 1010.23 1010.48 1010.73 1011.02 1011.41 1011.88 1012.41 1012.94 1013.40 1013.75 1013.96 1014.02 1013.96 1013.82 1013.66 1013.52 1013.44 1013.42 1013.47 1013.57 1013.69 1013.81 1013.91 1013.99 1014.05 1014.11 1014.17
1007.90 1009.53 1011.23 1012.75 1013.86 1014.38 1014.21 1013.37 1011.97 1010.20 1008.34 1006.64 1005.30 1004.47 1004.19 1004.42 1005.06 1005.94 1006.91 1007.81 1008.57 1009.13 1009.54 1009.82 1010.07 1010.33 1010.67 1011.09 1011.57 1012.07 1012.54 1012.92 1013.18 1013.32 1013.34 1013.27 1013.16 1013.05 1012.97 1012.94 1012.96 1013.03 1013.11 1013.20 1013.29 1013.36 1013.42 1013.48 1013.53
1007.58 1009.13 1010.73 1012.16 1013.20 1013.69 1013.54 1012.75 1011.42 1009.74 1007.95 1006.29 1004.95 1004.07 1003.71 1003.85 1004.40 1005.21 1006.13 1007.02 1007.79 1008.39 1008.83 1009.15 1009.41 1009.67 1009.98 1010.36 1010.80 1011.26 1011.71 1012.11 1012.40 1012.60 1012.68 1012.68 1012.63 1012.56 1012.50 1012.47 1012.47 1012.51 1012.58 1012.65 1012.73 1012.80 1012.86 1012.91 1012.95
1006.97 1008.32 1009.72 1010.98 1011.90 1012.35 1012.24 1011.56 1010.41 1008.93 1007.33 1005.82 1004.58 1003.74 1003.36 1003.42 1003.86 1004.57 1005.40 1006.23 1006.98 1007.59 1008.07 1008.43 1008.72 1009.00 1009.31 1009.67 1010.08 1010.51 1010.94 1011.33 1011.65 1011.87 1012.01 1012.06 1012.07 1012.04 1012.01 1011.99 1012.00 1012.03 1012.09 1012.16 1012.23 1012.30 1012.36 1012.41 1012.44
Thickness
5823 5821 5818 5807 5790 5776 5774 5789 5804 5807 5811 5820 5825 5820 5810 5803 5794 5786 5810 5817 5816 5813 5811 5810 5808 5807 5806 5806 5805 5804 5803 5802 5801 5800 5799 5797 5796 5795 5793 5792 5790 5788 5787 5786 5784 5782 5781 5779 5777
5825 5822 5813 5800 5779 5762 5773 5797 5804 5812 5820 5828 5826 5821 5813 5807 5814 5811 5813 5816 5817 5815 5812 5811 5809 5807 5807 5806 5805 5804 5803 5802 5800 5799 5798 5797 5796 5794 5793 5791 5790 5788 5787 5785 5784 5782 5780 5778 5777
5827 5824 5806 5792 5779 5771 5781 5804 5812 5822 5831 5830 5822 5821 5814 5809 5815 5814 5817 5819 5817 5815 5813 5812 5810 5809 5807 5807 5806 5804 5803 5802 5800 5799 5798 5796 5795 5794 5793 5791 5789 5788 5786 5785 5783 5781 5780 5778 5777
5824 5814 5804 5787 5781 5796 5804 5814 5821 5822 5827 5830 5823 5813 5818 5825 5824 5821 5821 5819 5816 5814 5814 5812 5811 5809 5808 5807 5807 5805 5802 5801 5799 5798 5797 5796 5795 5794 5792 5791 5789 5788 5786 5784 5783 5781 5780 5778 5776
5822 5805 5789 5780 5790 5808 5821 5828 5830 5822 5821 5823 5821 5808 5809 5825 5829 5826 5822 5820 5816 5814 5814 5812 5811 5809 5808 5807 5806 5805 5802 5800 5799 5797 5796 5795 5794 5793 5791 5790 5789 5788 5786 5785 5783 5781 5779 5778 5776
5811 5800 5779 5775 5793 5814 5826 5834 5832 5824 5821 5822 5819 5808 5808 5824 5825 5823 5823 5820 5819 5816 5814 5812 5810 5809 5807 5806 5805 5804 5801 5799 5798 5796 5795 5794 5793 5791 5790 5789 5788 5787 5786 5785 5783 5781 5779 5778 5777
5806 5794 5785 5788 5795 5808 5826 5838 5831 5825 5822 5824 5825 5809 5810 5819 5825 5826 5824 5821 5818 5816 5813 5812 5810 5808 5807 5805 5804 5802 5800 5798 5797 5796 5794 5793 5792 5791 5790 5789 5787 5787 5786 5784 5783 5781 5780 5778 5777
5819 5800 5791 5794 5798 5807 5830 5838 5837 5832 5827 5836 5833 5812 5808 5820 5828 5826 5822 5818 5816 5814 5812 5811 5809 5807 5806 5804 5803 5801 5799 5797 5796 5795 5794 5792 5791 5791 5790 5789 5787 5786 5785 5784 5783 5781 5780 5778 5777
5826 5795 5787 5799 5806 5815 5834 5833 5838 5844 5836 5834 5836 5830 5829 5832 5829 5822 5816 5813 5811 5811 5811 5810 5808 5807 5805 5803 5802 5800 5798 5796 5795 5793 5792 5791 5790 5789 5788 5788 5787 5786 5784 5784 5782 5781 5779 5778 5777
5816 5792 5803 5824 5828 5829 5836 5836 5836 5833 5825 5824 5827 5832 5834 5831 5826 5819 5813 5810 5809 5808 5809 5810 5808 5806 5805 5804 5801 5799 5797 5795 5794 5792 5790 5789 5788 5787 5787 5786 5785 5785 5784 5783 5782 5781 5779 5778 5777
5820 5809 5824 5837 5843 5842 5837 5838 5843 5829 5818 5824 5825 5827 5829 5827 5823 5819 5816 5814 5812 5812 5811 5810 5809 5807 5805 5803 5801 5799 5797 5795 5792 5790 5789 5788 5787 5786 5785 5784 5784 5784 5783 5782 5781 5780 5778 5778 5776
5826 5831 5838 5842 5848 5844 5840 5839 5837 5834 5833 5842 5841 5837 5832 5825 5821 5820 5818 5816 5815 5813 5812 5811 5810 5807 5806 5804 5801 5799 5796 5794 5792 5790 5789 5787 5785 5784 5782 5783 5783 5783 5782 5781 5780 5779 5778 5777 5776
5828 5833 5843 5846 5848 5847 5845 5840 5837 5837 5845 5847 5843 5838 5832 5828 5825 5824 5824 5821 5818 5814 5813 5812 5811 5808 5806 5804 5801 5799 5797 5794 5792 5790 5788 5787 5784 5782 5782 5782 5782 5782 5781 5780 5779 5778 5777 5776 5775
5836 5839 5842 5847 5847 5847 5840 5838 5837 5836 5846 5843 5839 5835 5833 5831 5828 5825 5823 5820 5818 5815 5814 5813 5811 5809 5807 5804 5801 5799 5797 5795 5792 5790 5788 5787 5785 5784 5782 5781 5781 5780 5780 5779 5778 5778 5777 5775 5774
5842 5832 5834 5842 5845 5845 5842 5826 5832 5843 5845 5839 5837 5836 5834 5833 5831 5827 5826 5823 5820 5817 5815 5812 5811 5809 5807 5804 5801 5799 5797 5795 5792 5790 5788 5786 5785 5784 5782 5780 5779 5779 5779 5779 5778 5776 5775 5774 5773
5831 5817 5807 5831 5842 5844 5830 5808 5834 5846 5842 5835 5835 5835 5833 5832 5832 5831 5830 5826 5823 5819 5816 5814 5813 5808 5805 5803 5801 5798 5796 5794 5792 5790 5788 5786 5785 5783 5782 5780 5779 5778 5778 5777 5776 5774 5772 5771 5770
5806 5794 5800 5819 5840 5840 5827 5814 5835 5846 5841 5834 5834 5834 5832 5830 5830 5832 5832 5829 5825 5821 5817 5813 5811 5807 5805 5802 5800 5797 5795 5793 5791 5789 5787 5786 5784 5783 5781 5779 5778 5778 5776 5775 5775 5772 5771 5769 5768
5790 5794 5801 5808 5829 5833 5822 5821 5836 5844 5841 5836 5835 5834 5832 5830 5830 5833 5832 5829 5826 5822 5818 5813 5810 5807 5804 5801 5798 5794 5792 5791 5789 5787 5786 5785 5783 5782 5781 5779 5777 5776 5774 5773 5772 5770 5769 5767 5766
5811 5804 5800 5813 5834 5825 5817 5820 5831 5840 5838 5834 5833 5834 5832 5832 5834 5834 5832 5829 5824 5820 5816 5812 5808 5805 5803 5798 5794 5790 5787 5787 5787 5786 5785 5783 5782 5781 5779 5778 5776 5775 5772 5771 5771 5768 5766 5764 5764
5813 5803 5802 5815 5833 5826 5815 5818 5832 5838 5838 5839 5837 5835 5834 5831 5830 5830 5829 5827 5823 5819 5816 5812 5809 5805 5803 5800 5796 5793 5789 5787 5786 5785 5784 5783 5782 5781 5779 5776 5775 5773 5772 5770 5769 5766 5763 5762 5762
5811 5806 5807 5809 5823 5826 5814 5806 5819 5832 5840 5841 5842 5841 5838 5833 5830 5828 5826 5824 5822 5819 5817 5814 5810 5806 5803 5800 5796 5792 5788 5785 5783 5782 5781 5782 5781 5780 5778 5777 5774 5772 5771 5768 5767 5765 5762 5758 5759
5804 5827 5827 5820 5806 5795 5805 5777 5805 5821 5827 5833 5836 5837 5838 5837 5834 5829 5827 5824 5823 5822 5820 5815 5810 5807 5804 5800 5795 5789 5783 5780 5780 5780 5780 5780 5780 5779 5778 5776 5774 5771 5770 5768 5766 5765 5762 5759 5755
5820 5836 5828 5820 5804 5791 5797 5782 5793 5814 5815 5825 5832 5836 5839 5840 5837 5832 5829 5827 5825 5823 5820 5815 5810 5806 5804 5801 5796 5790 5785 5783 5782 5781 5779 5778 5778 5777 5776 5774 5773 5771 5769 5768 5766 5764 5762 5760 5756
5836 5827 5817 5804 5789 5771 5787 5782 5783 5804 5818 5825 5832 5837 5838 5838 5837 5833 5830 5827 5823 5822 5818 5814 5809 5805 5803 5800 5796 5790 5786 5782 5779 5777 5776 5775 5774 5774 5774 5773 5771 5770 5768 5767 5765 5763 5761 5759 5756
5824 5794 5768 5765 5755 5762 5788 5783 5787 5818 5833 5834 5834 5835 5837 5836 5832 5828 5824 5821 5820 5818 5816 5812 5807 5803 5801 5798 5794 5791 5788 5784 5780 5777 5775 5773 5771 5771 5771 5771 5770 5769 5767 5765 5764 5761 5759 5757 5755
5811 5795 5763 5751 5749 5761 5780 5777 5799 5828 5838 5840 5839 5837 5834 5830 5830 5828 5826 5822 5818 5817 5814 5811 5806 5802 5799 5796 5793 5791 5788 5784 5780 5778 5776 5774 5772 5771 5771 5770 5769 5767 5766 5765 5762 5760 5758 5756 5753
5807 5795 5794 5771 5765 5756 5765 5783 5803 5823 5828 5830 5830 5829 5827 5827 5827 5826 5825 5822 5818 5815 5813 5811 5806 5801 5798 5795 5793 5790 5787 5784 5781 5779 5777 5775 5773 5772 5771 5769 5768 5766 5764 5763 5760 5757 5755 5754 5751
5819 5807 5783 5766 5750 5744 5758 5769 5776 5799 5810 5818 5821 5822 5824 5825 5824 5824 5823 5820 5817 5816 5813 5811 5806 5802 5798 5795 5792 5790 5786 5784 5782 5779 5776 5774 5773 5771 5770 5768 5766 5764 5762 5760 5758 5755 5753 5750 5748
5805 5799 5785 5766 5761 5744 5741 5760 5805 5806 5812 5814 5817 5821 5821 5822 5821 5821 5822 5821 5817 5814 5810 5807 5804 5800 5796 5793 5791 5788 5785 5783 5780 5777 5775 5773 5772 5770 5767 5765 5763 5761 5759 5758 5755 5752 5750 5747 5744
5812 5801 5786 5765 5759 5754 5748 5765 5817 5815 5816 5816 5816 5818 5819 5819 5819 5819 5818 5815 5812 5811 5808 5804 5801 5798 5795 5792 5789 5785 5783 5780 5777 5775 5773 5771 5769 5767 5765 5763 5761 5759 5757 5755 5752 5749 5746 5743 5740